AXB001 VABB-VASU

Flight info

Callsign AXB001
Flight time 0h 29m
Altitude 14000
Route ANOLI2A ISRIS
Aircraft B738/M-SDE2E3FGHIRWXY/LB1

Departure

Time 2026-05-05 02:08
Airport Chhatrapati Shivaji Maharaj International Airport (VABB)

Arrival

Time 2026-05-05 02:37
Airport Surat International Airport (VASU)
Time Latitude Longitude Altitude Speed Heading
2026-05-05 01:44 19.09156 72.85563 48 ft 0 kts
2026-05-05 01:50 19.09148 72.85563 48 ft 4 kts 360°
2026-05-05 01:50 19.09121 72.85563 47 ft 4 kts
2026-05-05 01:50 19.09101 72.85561 45 ft 2 kts 25°
2026-05-05 01:51 19.09093 72.85553 45 ft 2 kts 85°
2026-05-05 01:51 19.09093 72.85544 45 ft 0 kts 89°
2026-05-05 01:53 19.09093 72.85545 48 ft 1 kts 89°
2026-05-05 01:54 19.09093 72.85561 48 ft 4 kts 89°
2026-05-05 01:54 19.09084 72.85589 45 ft 4 kts 128°
2026-05-05 01:54 19.09055 72.85603 48 ft 5 kts 156°
2026-05-05 01:54 19.09033 72.85627 48 ft 5 kts 115°
2026-05-05 01:55 19.09028 72.85662 48 ft 5 kts 91°
2026-05-05 01:55 19.09028 72.85699 48 ft 5 kts 89°
2026-05-05 01:55 19.09028 72.85736 48 ft 5 kts 89°
2026-05-05 01:55 19.09029 72.85772 48 ft 5 kts 89°
2026-05-05 01:56 19.09029 72.85807 48 ft 5 kts 89°
2026-05-05 01:56 19.09030 72.85842 48 ft 5 kts 89°
2026-05-05 01:56 19.09031 72.85875 48 ft 5 kts 88°
2026-05-05 01:56 19.09032 72.85910 48 ft 5 kts 89°
2026-05-05 01:57 19.09032 72.85946 48 ft 5 kts 89°
2026-05-05 01:57 19.09032 72.85985 47 ft 6 kts 90°
2026-05-05 01:57 19.09033 72.86041 47 ft 10 kts 89°
2026-05-05 01:57 19.09034 72.86127 47 ft 14 kts 88°
2026-05-05 01:58 19.09035 72.86231 47 ft 14 kts 90°
2026-05-05 01:58 19.09037 72.86330 48 ft 13 kts 88°
2026-05-05 01:58 19.09038 72.86411 48 ft 0 kts 89°
2026-05-05 02:00 19.09038 72.86425 48 ft 6 kts 89°
2026-05-05 02:00 19.09039 72.86519 48 ft 18 kts 89°
2026-05-05 02:01 19.09041 72.86663 49 ft 20 kts 89°
2026-05-05 02:01 19.09043 72.86804 37 ft 19 kts 89°
2026-05-05 02:01 19.09045 72.86940 49 ft 18 kts 89°
2026-05-05 02:01 19.09047 72.87071 49 ft 18 kts 89°
2026-05-05 02:02 19.09048 72.87198 49 ft 17 kts 90°
2026-05-05 02:02 19.09051 72.87321 49 ft 16 kts 89°
2026-05-05 02:02 19.09052 72.87440 48 ft 16 kts 89°
2026-05-05 02:02 19.09053 72.87553 48 ft 15 kts 89°
2026-05-05 02:03 19.09055 72.87662 48 ft 15 kts 89°
2026-05-05 02:03 19.09056 72.87765 48 ft 14 kts 89°
2026-05-05 02:03 19.09057 72.87865 48 ft 13 kts 89°
2026-05-05 02:03 19.09059 72.87961 48 ft 13 kts 89°
2026-05-05 02:04 19.09036 72.88046 47 ft 13 kts 149°
2026-05-05 02:04 19.09010 72.88052 47 ft 0 kts 176°
2026-05-05 02:05 19.09009 72.88052 47 ft 1 kts 176°
2026-05-05 02:06 19.08990 72.88052 47 ft 5 kts 178°
2026-05-05 02:06 19.08936 72.88049 45 ft 10 kts 193°
2026-05-05 02:06 19.08889 72.87986 46 ft 13 kts 261°
2026-05-05 02:06 19.08888 72.87963 46 ft 1 kts 270°
2026-05-05 02:07 19.08888 72.87961 46 ft 0 kts 270°
2026-05-05 02:07 19.08888 72.87958 46 ft 4 kts 270°
2026-05-05 02:07 19.08884 72.87689 47 ft 79 kts 269°
2026-05-05 02:07 19.08870 72.86828 51 ft 154 kts 268°
2026-05-05 02:08 19.08829 72.85545 562 ft 181 kts 266°
2026-05-05 02:08 19.08762 72.84298 1756 ft 170 kts 264°
2026-05-05 02:08 19.08712 72.82982 2374 ft 188 kts 268°
2026-05-05 02:08 19.08709 72.81586 3302 ft 187 kts 269°
2026-05-05 02:09 19.08730 72.80130 3940 ft 204 kts 269°
2026-05-05 02:09 19.08734 72.78659 4816 ft 201 kts 269°
2026-05-05 02:09 19.08783 72.77120 5341 ft 213 kts 273°
2026-05-05 02:09 19.08930 72.75582 6215 ft 206 kts 277°
2026-05-05 02:10 19.09167 72.74015 6596 ft 229 kts 284°
2026-05-05 02:10 19.09890 72.72439 7056 ft 249 kts 307°
2026-05-05 02:10 19.11309 72.71325 7706 ft 263 kts 340°
2026-05-05 02:10 19.13161 72.71212 8398 ft 276 kts
2026-05-05 02:11 19.15110 72.71570 8928 ft 291 kts
2026-05-05 02:11 19.17054 72.71942 9931 ft 281 kts
2026-05-05 02:11 19.18958 72.72216 10958 ft 276 kts
2026-05-05 02:11 19.20887 72.72526 11616 ft 286 kts
2026-05-05 02:12 19.22900 72.72869 12155 ft 300 kts
2026-05-05 02:12 19.27137 72.73404 13296 ft 309 kts
2026-05-05 02:12 19.29308 72.73719 13478 ft 316 kts
2026-05-05 02:13 19.31476 72.74020 13558 ft 325 kts
2026-05-05 02:13 19.33797 72.74390 13849 ft 345 kts
2026-05-05 02:13 19.36220 72.74793 13870 ft 368 kts
2026-05-05 02:13 19.38819 72.75222 13882 ft 388 kts
2026-05-05 02:14 19.41555 72.75664 13883 ft 405 kts
2026-05-05 02:14 19.44376 72.76111 13873 ft 411 kts
2026-05-05 02:14 19.47226 72.76556 13864 ft 416 kts
2026-05-05 02:14 19.50091 72.76999 13854 ft 414 kts
2026-05-05 02:15 19.52937 72.77437 13859 ft 414 kts
2026-05-05 02:15 19.55788 72.77875 13860 ft 414 kts
2026-05-05 02:15 19.58640 72.78314 13859 ft 414 kts
2026-05-05 02:15 19.61493 72.78753 13861 ft 414 kts
2026-05-05 02:16 19.64351 72.79193 13872 ft 414 kts
2026-05-05 02:16 19.67211 72.79633 13868 ft 414 kts
2026-05-05 02:16 19.70027 72.80067 13863 ft 414 kts
2026-05-05 02:16 19.72878 72.80506 13866 ft 413 kts
2026-05-05 02:17 19.75724 72.80945 13863 ft 413 kts
2026-05-05 02:17 19.78570 72.81384 13873 ft 413 kts
2026-05-05 02:17 19.81416 72.81824 13875 ft 413 kts
2026-05-05 02:17 19.84273 72.82265 13879 ft 413 kts
2026-05-05 02:18 19.87119 72.82704 13876 ft 413 kts
2026-05-05 02:18 19.89966 72.83144 13876 ft 414 kts
2026-05-05 02:18 19.92784 72.83580 13876 ft 414 kts
2026-05-05 02:18 19.95631 72.84020 13877 ft 413 kts
2026-05-05 02:19 19.98515 72.84467 13875 ft 413 kts
2026-05-05 02:19 20.01323 72.84901 13877 ft 413 kts
2026-05-05 02:19 20.04167 72.85342 13875 ft 412 kts
2026-05-05 02:19 20.07006 72.85781 13872 ft 412 kts
2026-05-05 02:20 20.09855 72.86210 13875 ft 413 kts
2026-05-05 02:20 20.12707 72.86588 13877 ft 413 kts
2026-05-05 02:20 20.15561 72.86944 13869 ft 413 kts
2026-05-05 02:20 20.18417 72.87294 13867 ft 413 kts
2026-05-05 02:21 20.21280 72.87647 13869 ft 413 kts
2026-05-05 02:21 20.24140 72.88003 13869 ft 413 kts
2026-05-05 02:21 20.26993 72.88362 13867 ft 413 kts
2026-05-05 02:21 20.29824 72.88721 13872 ft 414 kts
2026-05-05 02:22 20.32683 72.89085 13870 ft 414 kts
2026-05-05 02:22 20.35545 72.89450 13868 ft 414 kts
2026-05-05 02:22 20.38345 72.89807 13852 ft 393 kts
2026-05-05 02:22 20.40998 72.90145 13851 ft 374 kts
2026-05-05 02:23 20.42690 72.90361 13650 ft 369 kts
2026-05-05 02:23 20.45224 72.90685 13298 ft 363 kts
2026-05-05 02:23 20.47713 72.91004 12883 ft 357 kts
2026-05-05 02:23 20.50160 72.91317 12433 ft 352 kts
2026-05-05 02:24 20.52577 72.91626 11999 ft 347 kts
2026-05-05 02:24 20.54965 72.91931 11559 ft 343 kts
2026-05-05 02:24 20.57323 72.92233 11130 ft 341 kts
2026-05-05 02:24 20.60433 72.92631 10798 ft 336 kts
2026-05-05 02:25 20.61999 72.92831 10699 ft 335 kts
2026-05-05 02:25 20.64292 72.93125 10549 ft 334 kts
2026-05-05 02:25 20.66532 72.93412 10389 ft 314 kts
2026-05-05 02:25 20.68639 72.93682 10248 ft 297 kts
2026-05-05 02:26 20.70655 72.93941 10129 ft 287 kts
2026-05-05 02:26 20.72615 72.94192 10017 ft 279 kts
2026-05-05 02:26 20.74514 72.94435 9897 ft 271 kts
2026-05-05 02:26 20.76372 72.94621 9663 ft 268 kts 359°
2026-05-05 02:27 20.78199 72.94515 9405 ft 265 kts 354°
2026-05-05 02:27 20.80031 72.94315 9128 ft 264 kts 353°
2026-05-05 02:27 20.81865 72.94104 8864 ft 267 kts 353°
2026-05-05 02:27 20.83736 72.93894 8612 ft 274 kts 352°
2026-05-05 02:28 20.85658 72.93685 8318 ft 280 kts 352°
2026-05-05 02:28 20.87596 72.93482 8020 ft 279 kts 353°
2026-05-05 02:28 20.89528 72.93285 7725 ft 278 kts 353°
2026-05-05 02:28 20.91447 72.93093 7442 ft 276 kts 353°
2026-05-05 02:29 20.93365 72.92904 7163 ft 275 kts 352°
2026-05-05 02:29 20.95258 72.92717 6896 ft 273 kts 353°
2026-05-05 02:29 20.97143 72.92533 6627 ft 271 kts 353°
2026-05-05 02:29 20.99003 72.92351 6345 ft 269 kts 353°
2026-05-05 02:30 21.00864 72.92170 6063 ft 268 kts 353°
2026-05-05 02:30 21.02716 72.91990 5777 ft 266 kts 352°
2026-05-05 02:30 21.04555 72.91811 5486 ft 265 kts 352°
2026-05-05 02:30 21.06387 72.91632 5213 ft 264 kts 352°
2026-05-05 02:31 21.08221 72.91453 4938 ft 263 kts 352°
2026-05-05 02:31 21.10047 72.91276 4682 ft 262 kts 352°
2026-05-05 02:31 21.11862 72.91099 4443 ft 260 kts 352°
2026-05-05 02:31 21.13635 72.90927 4388 ft 250 kts 352°
2026-05-05 02:32 21.15321 72.90763 4289 ft 242 kts 352°
2026-05-05 02:32 21.16978 72.90602 4194 ft 235 kts 352°
2026-05-05 02:32 21.18601 72.90443 4110 ft 235 kts 352°
2026-05-05 02:32 21.20250 72.90281 3935 ft 239 kts 352°
2026-05-05 02:33 21.21895 72.90034 3690 ft 238 kts 337°
2026-05-05 02:33 21.23154 72.89011 3451 ft 225 kts 297°
2026-05-05 02:33 21.23489 72.87431 3091 ft 222 kts 258°
2026-05-05 02:33 21.22826 72.85990 2846 ft 215 kts 232°
2026-05-05 02:34 21.21883 72.84764 2567 ft 209 kts 229°
2026-05-05 02:34 21.20917 72.83665 2295 ft 203 kts 224°
2026-05-05 02:34 21.19885 72.82622 2031 ft 206 kts 223°
2026-05-05 02:34 21.18832 72.81575 1770 ft 207 kts 223°
2026-05-05 02:35 21.17801 72.80547 1526 ft 200 kts 224°
2026-05-05 02:35 21.16765 72.79511 1243 ft 205 kts 223°
2026-05-05 02:35 21.15725 72.78472 993 ft 199 kts 223°
2026-05-05 02:35 21.14781 72.77532 761 ft 172 kts 223°
2026-05-05 02:36 21.13958 72.76709 543 ft 153 kts 222°
2026-05-05 02:36 21.13234 72.75991 411 ft 133 kts 220°
2026-05-05 02:36 21.12578 72.75338 240 ft 124 kts 222°
2026-05-05 02:36 21.11937 72.74691 63 ft 122 kts 222°
2026-05-05 02:37 21.11382 72.74136 26 ft 94 kts 223°
2026-05-05 02:37 21.11002 72.73761 22 ft 55 kts 223°
2026-05-05 02:37 21.10884 72.73643 23 ft 19 kts 223°
2026-05-05 02:37 21.10817 72.73577 25 ft 0 kts 222°